Powrót do katalogu

FENGYUN 1C DEB

AktywnySSO
NORAD 38491·DEBRIS·🇨🇳 China

Wystrzelony May 10, 1999 z Taiyuan Satellite Launch Center

Loading…

Następne Przeloty (najbliższe 24 godziny)

TLE

Starzejące sięSource: Space-Track

Epoka: Sep 4, 2026, 06:20 UTC

1 38491U 99025ESA 26247.26441806  .00000314  00000-0  20771-3 0  9990
2 38491  98.9362 251.0814 0225410  15.0775 345.6964 13.96679907701668

Śledź FENGYUN 1C DEB w czasie rzeczywistym z AllMySat

Download on the App Store